Temperature
21 21 21 21 23 22 18 16 16 14 13 11 11 11 12 11 12 10 4 5 6 7 7 7 8 8 8 8 8 8 8 8 8 8 8 8 8 7 7 7 8 8 8 9 9 10 10 11 11
21 21 21 22 24 22 17 15 15 14 11 10 10 10 10 8 6 5 4 5 6 7 7 7 7 7 8 8 8 8 7 7 7 7 7 7 7 7 6 7 7 7 7 7 7 8 9 9 10
21 21 20 22 21 21 17 14 13 11 10 10 9 8 8 7 5 4 4 5 6 7 7 7 7 7 7 7 7 7 6 6 6 6 6 6 6 6 6 6 6 6 6 5 6 6 7 8 8
21 21 20 20 17 14 15 14 12 11 10 10 10 8 6 4 4 4 5 5 6 7 7 7 7 7 7 7 6 6 5 5 5 5 5 5 5 5 5 5 5 5 5 5 5 5 5 6 7
22 21 21 18 15 14 14 13 12 13 11 9 9 8 6 3 3 4 5 6 6 7 7 7 7 7 7 6 6 5 5 5 5 5 5 5 5 5 4 4 4 4 4 4 4 4 5 5 6
21 23 22 19 15 14 13 11 12 12 10 9 9 8 6 3 3 4 5 6 6 6 7 7 7 7 6 6 5 5 4 4 4 4 4 4 4 4 4 4 4 4 4 4 4 4 4 4 5
21 21 19 18 16 14 13 11 12 12 11 9 9 8 5 3 3 4 4 5 6 6 6 6 6 6 5 5 4 4 4 4 4 4 4 4 4 4 4 4 3 3 3 3 3 3 3 3 4
18 20 18 18 17 15 12 10 10 11 10 7 7 9 7 4 3 4 4 5 5 6 6 6 5 5 5 4 4 4 4 4 4 4 4 3 3 3 3 3 3 3 3 3 3 3 3 3 3
19 22 20 18 17 15 11 10 8 7 7 6 6 7 6 4 3 3 4 4 4 5 5 5 5 4 4 3 3 3 3 3 3 3 3 3 3 3 2 2 2 2 2 2 2 2 2 2 3
20 21 18 15 16 14 11 11 9 8 8 7 5 4 4 4 3 3 3 3 4 4 5 5 4 4 3 3 2 2 2 2 2 2 2 2 2 1 1 2 1 1 1 1 1 1 2 2 2
16 16 13 12 12 12 11 10 9 10 10 9 7 5 4 3 3 3 3 3 3 4 4 4 3 3 2 2 2 2 1 1 1 1 1 1 1 0 0 0 0 -0 -0 -0 0 0 0 0 0
14 12 12 11 10 10 10 9 9 10 10 8 7 5 4 4 3 3 3 3 3 3 4 3 3 2 1 1 1 1 0 0 0 0 -0 -0 -1 -1 -1 -1 -2 -2 -2 -2 -2 -2 -2 -1 -1
14 11 10 9 9 9 9 10 10 9 7 7 5 4 4 4 3 3 3 3 3 3 3 2 2 1 1 1 0 0 -0 -0 -1 -1 -1 -2 -2 -2 -3 -3 -3 -4 -4 -4 -4 -4 -4 -3 -3
12 11 10 10 10 9 10 9 9 8 6 6 5 4 4 4 3 3 3 2 3 3 2 2 1 0 0 -0 -0 -1 -1 -1 -1 -2 -2 -3 -3 -4 -4 -4 -5 -5 -6 -6 -6 -6 -5 -5 -5
12 13 12 11 10 9 10 10 10 8 6 6 5 5 4 3 3 3 2 3 2 2 2 1 0 0 -0 -0 -0 -1 -1 -1 -2 -3 -3 -4 -4 -5 -5 -6 -6 -7 -7 -7 -7 -7 -7 -7 -6
15 16 17 13 11 9 11 15 12 7 6 6 6 5 4 3 3 2 2 2 2 2 1 1 0 -0 -0 -0 -1 -1 -1 -2 -3 -3 -4 -5 -5 -5 -6 -7 -7 -8 -8 -8 -8 -8 -8 -8 -8
18 19 18 15 12 11 11 14 11 7 7 7 6 6 4 3 2 2 2 2 2 1 1 0 -0 -0 -0 -0 -1 -1 -2 -3 -3 -4 -4 -5 -5 -6 -7 -7 -8 -9 -9 -9 -9 -9 -9 -9 -9
19 19 18 18 14 12 12 14 11 7 7 8 7 6 5 4 3 2 2 1 1 1 0 -0 -1 -1 -1 -1 -1 -2 -3 -3 -3 -4 -5 -5 -6 -7 -8 -9 -9 -10 -10 -10 -10 -10 -10 -10 -10
18 18 18 17 13 12 13 13 13 8 7 8 7 7 6 5 3 1 1 1 1 0 0 -0 -1 -1 -1 -2 -2 -2 -3 -4 -4 -5 -6 -6 -7 -8 -9 -10 -10 -10 -11 -11 -11 -11 -11 -10 -10
17 18 18 16 12 12 13 13 13 10 8 8 8 7 6 5 3 1 1 1 1 0 -0 -1 -1 -2 -2 -2 -3 -3 -4 -5 -6 -6 -7 -7 -8 -9 -10 -10 -11 -11 -11 -11 -11 -11 -11 -11 -11
17 17 17 16 13 11 12 16 12 9 8 7 7 7 7 5 3 2 1 1 0 0 -0 -1 -1 -2 -2 -3 -3 -4 -5 -6 -7 -7 -7 -8 -9 -10 -10 -11 -11 -11 -12 -12 -11 -11 -11 -11 -11
18 15 14 14 15 16 14 18 16 11 9 8 7 7 6 5 3 2 1 0 0 0 -0 -1 -2 -2 -3 -3 -4 -5 -6 -6 -7 -8 -8 -9 -9 -10 -11 -11 -11 -12 -12 -12 -12 -12 -12 -12 -12
15 13 13 13 14 15 14 16 19 11 13 12 9 8 6 5 3 2 1 1 1 0 -1 -1 -2 -3 -3 -4 -4 -5 -6 -7 -7 -8 -9 -10 -10 -10 -11 -11 -11 -11 -12 -12 -12 -12 -12 -12 -12
13 13 13 13 15 17 15 16 18 16 15 14 11 8 6 4 2 1 1 1 1 -0 -1 -2 -2 -3 -3 -4 -5 -5 -6 -7 -8 -9 -10 -10 -10 -11 -11 -11 -11 -11 -11 -12 -12 -12 -12 -12 -12
15 17 18 19 18 18 13 14 17 16 13 11 10 8 5 3 2 1 1 1 0 -1 -1 -2 -2 -3 -3 -4 -5 -6 -7 -7 -8 -9 -10 -10 -11 -11 -11 -11 -11 -11 -11 -12 -12 -12 -12 -12 -12
15 16 17 17 18 18 14 15 18 13 9 7 6 6 4 2 1 1 1 1 -0 -1 -1 -2 -3 -3 -4 -4 -5 -6 -7 -8 -8 -9 -10 -11 -11 -11 -11 -11 -11 -11 -11 -11 -11 -11 -12 -12 -12
15 15 14 16 15 15 17 17 17 10 9 8 6 4 3 2 1 1 1 1 -0 -1 -1 -2 -3 -3 -4 -5 -5 -6 -7 -8 -8 -9 -10 -10 -11 -11 -11 -11 -11 -11 -11 -11 -11 -11 -11 -11 -12
13 14 14 15 16 16 18 17 18 17 15 12 8 6 3 2 1 0 1 1 -0 -1 -2 -2 -3 -3 -4 -5 -6 -6 -7 -8 -9 -9 -10 -10 -11 -11 -11 -11 -11 -11 -11 -11 -11 -11 -11 -11 -11
13 13 14 14 15 16 16 18 17 17 15 13 11 7 4 2 1 1 1 0 -0 -1 -2 -2 -3 -4 -4 -5 -6 -6 -7 -8 -9 -9 -10 -10 -11 -11 -11 -11 -11 -11 -11 -11 -11 -11 -11 -11 -11
14 14 14 16 15 14 15 17 16 14 12 10 10 7 4 2 1 1 1 0 -1 -1 -2 -3 -3 -4 -5 -5 -6 -6 -7 -8 -9 -9 -10 -10 -11 -11 -12 -11 -11 -11 -11 -11 -11 -11 -11 -11 -11
Wind_Speed
5 3 1 1 3 7 7 6 5 7 5 6 8 7 8 8 5 6 4 10 12 14 16 19 22 23 24 25 25 26 26 27 27 28 28 29 29 29 29 29 29 29 28 28 28 28 28 28 28
4 1 1 1 2 6 6 5 8 7 10 9 7 7 7 7 7 6 4 9 12 13 15 19 22 22 23 24 25 25 26 26 27 28 28 28 29 29 28 29 29 28 28 28 28 28 28 28 28
5 4 4 4 5 5 7 8 11 12 8 4 5 6 5 6 5 4 5 8 10 13 15 18 22 22 23 24 24 24 25 26 26 27 28 28 29 29 28 28 28 28 28 28 28 28 28 28 28
2 4 5 7 10 6 7 12 13 11 6 4 6 8 5 4 3 6 6 7 10 13 15 18 21 22 22 23 24 24 24 25 26 27 27 28 28 28 28 28 28 28 28 28 28 28 28 28 28
2 3 6 8 8 6 8 10 10 6 6 6 7 7 7 6 8 8 7 8 10 12 14 16 20 21 21 22 23 23 24 24 25 26 27 27 27 27 27 27 28 28 29 28 28 28 28 28 28
3 3 5 7 8 7 7 7 7 6 7 7 8 9 7 8 7 6 6 7 10 12 13 14 17 19 20 21 22 22 22 23 24 25 26 26 26 26 26 27 27 28 28 28 28 28 28 28 28
4 5 6 9 9 7 6 6 7 7 8 7 7 8 9 9 7 5 5 6 8 11 13 15 16 17 17 18 20 20 21 22 22 23 25 25 24 24 25 26 27 28 28 28 28 28 29 28 28
4 7 7 7 9 7 9 6 5 6 7 6 6 6 8 12 9 5 4 5 7 10 12 15 16 16 16 15 17 18 19 20 21 21 24 24 22 23 23 24 26 27 28 28 28 28 29 28 26
0 4 6 7 8 9 12 8 6 4 8 5 3 2 9 15 10 5 3 4 6 9 11 14 15 16 15 14 14 15 16 18 19 19 22 21 20 20 21 23 25 26 27 27 27 28 28 27 23
5 4 5 3 3 10 13 9 10 9 9 7 8 9 15 13 9 5 3 5 8 10 11 12 14 15 15 13 12 13 13 15 16 17 19 18 18 17 19 20 22 23 24 24 25 27 25 22 20
7 7 7 5 7 12 12 10 9 10 8 9 14 18 17 13 9 5 4 5 7 8 9 11 13 13 14 12 11 11 11 12 14 16 17 17 16 16 16 17 18 19 21 20 22 21 20 21 20
8 8 7 8 7 9 10 10 8 9 2 8 16 19 17 13 9 6 4 4 6 8 9 10 11 12 12 12 11 11 11 11 12 14 16 16 15 15 16 15 17 17 17 19 19 18 21 22 22
7 7 7 9 9 9 9 8 6 6 5 13 17 17 15 12 9 6 4 3 5 8 9 10 10 11 12 11 10 10 11 12 13 12 14 16 15 15 16 16 16 17 17 18 19 19 21 21 20
10 11 10 8 7 6 7 6 5 7 12 16 17 16 14 12 10 7 4 3 5 7 8 9 9 11 11 11 11 11 11 12 12 12 14 15 15 15 16 16 16 16 17 18 19 20 19 18 18
10 9 7 5 4 5 6 6 8 11 16 17 16 15 13 12 10 7 4 2 4 5 6 8 9 10 11 12 12 11 11 12 12 12 14 15 16 16 17 16 16 16 18 19 18 19 18 16 17
5 4 3 5 5 5 6 6 8 16 18 18 16 15 14 12 11 8 5 3 3 4 5 7 8 10 11 12 12 11 11 12 12 12 13 15 17 17 17 16 16 18 19 17 16 15 15 15 16
3 3 2 4 7 6 8 7 8 16 18 17 17 15 14 13 12 9 7 4 2 3 5 6 8 10 12 12 11 11 11 11 12 12 13 16 17 18 18 16 16 18 17 16 15 14 15 16 17
0 2 3 3 6 8 10 11 7 15 18 18 17 16 15 14 13 11 8 5 2 2 4 6 8 10 12 11 10 10 11 11 11 12 14 17 17 18 18 16 17 18 15 14 14 17 16 16 16
1 4 6 2 3 6 12 14 10 14 18 18 17 17 16 15 12 11 9 6 2 1 4 6 8 9 10 8 9 9 10 9 10 11 14 15 17 18 17 16 17 16 14 15 17 16 18 16 15
3 5 5 1 2 5 11 15 10 12 19 19 18 18 17 15 13 12 10 7 3 1 4 6 7 9 9 9 9 9 10 9 10 11 13 15 17 17 16 17 16 16 14 16 16 17 15 15 14
3 5 5 5 2 4 8 6 4 5 11 15 17 17 16 16 15 13 11 8 4 1 3 5 7 8 9 10 9 9 8 8 8 10 11 15 17 17 17 17 17 17 16 14 17 17 18 16 15
3 1 4 5 6 4 4 6 3 3 7 12 16 17 17 15 14 13 11 8 4 0 2 4 6 7 8 9 9 11 10 10 11 10 11 16 16 16 17 17 18 18 17 16 16 16 16 17 15
2 1 3 3 3 5 2 5 2 2 4 8 13 16 16 14 14 13 11 8 4 1 1 3 5 6 8 9 10 10 10 9 10 11 13 14 15 15 16 17 18 18 17 17 18 18 18 15 15
1 2 2 2 3 3 1 4 4 2 2 1 3 9 13 13 13 12 10 8 5 2 1 3 5 6 7 9 9 10 11 12 13 13 13 12 11 14 16 18 18 19 18 18 18 18 19 16 17
2 5 4 3 3 3 1 5 6 1 3 5 5 5 9 13 14 13 11 8 5 3 2 3 5 6 7 8 9 10 11 12 13 13 13 13 12 12 16 19 19 19 19 20 20 18 17 17 17
2 4 4 5 6 7 2 5 4 1 3 4 5 5 9 13 14 13 11 8 5 3 2 3 4 6 7 8 9 9 10 9 9 12 12 12 11 13 18 20 20 21 21 20 19 16 16 15 15
1 2 2 3 4 6 6 6 6 3 7 8 7 7 11 14 14 12 10 8 6 4 2 3 4 6 7 8 9 9 10 10 11 12 12 11 13 15 19 20 20 20 20 20 18 14 16 15 14
3 3 2 2 5 6 9 7 5 5 6 7 10 11 12 14 14 12 10 8 6 4 3 3 3 5 7 7 8 8 10 10 11 11 12 13 15 17 18 18 19 19 19 19 18 16 15 14 13
4 3 2 2 3 4 7 8 2 7 5 6 8 11 13 16 15 13 10 8 6 5 3 3 3 5 6 7 8 9 9 10 11 10 12 13 15 16 17 17 18 18 18 18 17 17 16 15 13
3 4 5 4 3 4 6 8 2 5 5 7 8 8 12 15 14 13 11 9 7 6 4 3 3 4 6 7 8 9 9 10 10 11 12 14 14 16 17 17 17 17 18 17 17 17 16 15 13
Wind_Direction
106 137 243 235 98 81 87 87 106 118 90 85 76 81 83 62 42 87 72 15 3 358 357 1 9 11 14 15 15 15 15 15 14 13 12 11 9 8 7 5 3 2 0 359 358 356 355 353 351
93 118 321 15 129 121 100 111 114 100 118 116 88 86 88 82 68 83 55 18 8 7 4 7 10 13 15 16 15 15 15 15 14 13 11 10 9 7 6 5 2 1 359 357 356 355 353 351 349
94 51 47 63 75 97 116 123 121 116 125 126 103 73 78 89 84 78 48 21 15 16 12 11 13 15 16 16 15 15 15 14 14 12 11 10 8 6 5 4 1 0 358 356 355 353 351 349 347
110 80 66 69 83 67 110 133 135 135 127 110 125 107 92 59 78 87 63 31 25 22 17 15 16 17 17 17 16 16 15 15 13 11 10 8 7 5 4 2 360 359 357 355 354 351 349 347 345
84 94 84 82 85 105 119 135 152 145 135 130 134 118 108 100 101 93 68 39 28 23 18 17 19 19 19 19 18 16 15 14 12 10 8 6 4 3 2 1 358 357 355 354 352 349 347 345 342
84 75 106 116 116 129 141 160 168 149 134 138 139 126 121 133 124 98 70 46 33 24 19 19 19 20 20 20 18 16 15 13 11 8 6 4 2 0 359 358 356 355 353 351 349 347 345 343 340
79 75 98 123 135 155 154 160 181 161 150 148 146 133 137 154 134 115 79 48 36 26 23 20 18 18 17 17 17 14 13 11 8 6 4 1 358 357 356 355 353 351 350 348 346 344 342 340 337
86 102 109 136 151 159 151 141 144 161 140 132 166 159 159 159 147 133 88 48 36 29 26 21 19 16 11 9 12 10 9 8 5 4 1 357 354 353 352 352 350 348 346 344 342 341 339 336 333
102 103 133 155 166 157 159 155 139 126 138 143 158 136 134 142 148 146 116 62 41 33 29 22 18 13 7 3 2 3 3 3 1 360 358 355 351 349 347 346 344 344 343 341 339 338 336 334 330
23 102 112 104 132 152 162 165 154 158 162 159 146 130 134 146 155 148 99 52 35 28 25 21 16 10 3 358 355 357 358 357 358 356 354 350 346 343 341 338 339 339 339 337 337 335 334 333 329
51 83 107 97 107 140 150 155 165 172 186 190 170 155 154 158 161 151 105 57 38 29 25 20 13 6 1 354 352 353 351 351 351 352 351 346 343 340 340 337 336 336 336 336 334 332 332 328 325
84 77 93 115 121 141 150 155 173 195 219 168 161 156 160 167 167 157 115 63 41 31 24 15 9 3 357 352 349 351 349 348 347 346 348 347 341 337 337 333 332 332 333 331 330 326 325 322 320
86 105 89 105 115 127 144 165 176 188 145 145 149 159 168 171 167 154 125 79 42 30 21 12 0 360 354 349 346 348 347 346 343 342 344 344 338 334 333 329 328 327 328 327 325 323 321 319 317
105 111 113 117 122 143 157 166 185 178 155 153 161 171 178 178 174 168 157 91 43 28 18 6 356 357 351 349 348 346 345 342 339 339 340 340 336 331 328 325 324 323 325 323 319 318 317 315 314
120 113 121 141 149 154 172 204 213 169 167 169 177 182 185 186 185 184 162 110 48 28 12 4 352 351 348 347 347 344 343 341 338 337 336 337 335 330 327 321 320 321 322 319 317 316 315 313 312
144 161 182 166 178 171 216 258 174 167 177 183 188 191 193 194 195 187 169 137 64 22 7 360 349 345 347 347 343 342 341 340 337 336 334 337 335 332 327 322 320 321 320 317 316 316 316 314 312
187 236 247 183 195 188 223 258 158 177 188 195 197 199 201 199 200 193 180 159 96 18 3 354 350 346 345 342 339 338 338 338 337 336 337 338 336 334 329 322 320 322 319 316 315 316 315 313 311
270 276 267 255 184 207 234 250 191 190 200 207 206 207 208 209 205 194 184 171 146 17 359 351 349 348 344 340 338 337 339 339 339 338 339 338 336 334 330 323 323 322 318 317 317 315 313 310 309
294 277 287 293 158 229 254 263 244 199 206 215 215 215 216 217 205 190 186 182 183 353 354 351 348 349 347 344 342 339 338 335 336 336 335 334 334 333 330 326 324 323 318 317 315 315 313 312 313
248 280 292 249 176 253 288 280 265 212 212 218 221 221 221 216 201 194 191 191 201 328 351 348 348 345 347 344 336 330 326 324 325 329 331 333 333 332 329 326 323 319 317 314 314 314 310 309 313
262 285 311 311 297 232 298 277 180 201 223 228 232 233 229 219 209 198 194 195 198 297 352 344 341 339 343 342 335 332 327 325 333 334 331 331 329 328 326 323 320 316 316 312 312 311 307 308 307
310 315 296 296 299 306 339 312 149 188 227 229 230 229 228 220 211 198 192 190 189 171 348 333 334 336 343 343 341 339 335 333 333 331 325 327 327 325 324 322 319 316 313 310 309 307 303 301 300
327 338 277 272 274 282 253 287 289 167 252 236 229 226 223 214 204 193 185 177 167 160 317 325 328 335 343 344 341 336 333 329 327 328 326 328 327 325 324 323 320 317 314 310 308 305 301 297 293
234 216 172 193 236 270 138 295 293 185 232 258 231 224 216 204 193 183 171 164 167 177 272 315 325 336 343 342 339 336 332 330 328 330 330 330 327 326 327 326 322 319 316 312 309 305 300 295 291
287 310 310 305 294 331 120 269 267 278 244 257 268 243 208 192 184 177 173 175 182 201 261 307 325 336 341 339 337 334 330 328 328 329 328 328 326 327 328 327 324 322 318 314 310 306 301 295 291
17 341 354 322 314 315 255 262 282 179 237 253 259 244 199 189 186 181 178 179 186 202 251 302 325 333 337 335 333 329 329 327 323 325 324 324 324 324 324 325 322 322 321 319 315 310 306 298 292
122 90 8 281 285 284 278 276 278 195 243 237 232 216 201 191 187 183 178 180 187 202 240 297 319 327 331 330 328 326 329 327 323 323 323 323 323 323 323 324 324 324 324 323 321 313 311 306 297
13 139 181 266 310 303 297 286 277 250 243 224 227 221 206 192 188 184 181 183 187 200 228 271 304 319 322 324 326 322 323 324 322 321 324 324 324 325 324 325 326 326 327 326 325 322 319 316 309
160 167 188 197 264 285 304 301 225 261 267 253 244 224 204 193 189 185 182 182 187 200 224 260 291 309 317 321 322 321 323 322 321 321 324 325 324 326 326 327 327 328 329 329 329 330 327 322 318
236 217 202 250 249 237 271 276 190 239 248 252 259 230 203 193 188 183 181 183 193 207 223 249 280 300 312 315 316 318 320 321 322 323 324 325 325 326 327 328 327 328 330 331 332 334 335 333 329
Height
1555 1555 1556 1558 1559 1566 1585 1598 1600 1606 1611 1616 1617 1616 1617 1620 1621 1630 1633 1628 1626 1624 1622 1620 1617 1613 1610 1606 1602 1598 1594 1590 1586 1582 1579 1575 1571 1568 1564 1561 1558 1555 1552 1550 1547 1545 1542 1540 1538
1557 1557 1559 1559 1557 1570 1593 1600 1605 1609 1615 1618 1619 1619 1620 1625 1628 1630 1629 1627 1626 1624 1622 1619 1616 1613 1609 1605 1601 1597 1593 1589 1585 1581 1577 1573 1569 1566 1562 1559 1556 1553 1550 1547 1544 1541 1539 1536 1534
1558 1559 1561 1562 1568 1578 1595 1604 1609 1614 1617 1618 1620 1622 1624 1627 1629 1630 1629 1627 1626 1624 1621 1619 1616 1612 1608 1604 1600 1596 1592 1588 1584 1580 1576 1572 1568 1565 1561 1557 1554 1550 1547 1544 1541 1538 1535 1532 1530
1560 1561 1565 1571 1587 1600 1600 1607 1612 1615 1618 1619 1620 1624 1626 1628 1629 1629 1628 1627 1626 1624 1621 1618 1615 1611 1607 1603 1598 1595 1590 1587 1583 1579 1575 1571 1567 1563 1560 1556 1552 1549 1545 1542 1538 1535 1532 1529 1526
1560 1562 1566 1582 1595 1604 1607 1610 1612 1613 1616 1619 1621 1623 1627 1628 1628 1628 1627 1626 1625 1623 1620 1617 1614 1610 1606 1601 1597 1593 1590 1586 1582 1578 1574 1570 1566 1562 1558 1555 1551 1547 1543 1539 1536 1532 1528 1525 1522
1562 1561 1567 1584 1598 1606 1609 1612 1613 1614 1617 1620 1622 1624 1628 1628 1628 1627 1627 1626 1624 1622 1620 1616 1613 1608 1604 1600 1596 1592 1588 1585 1581 1577 1573 1569 1565 1561 1557 1553 1549 1545 1540 1536 1533 1529 1525 1522 1518
1564 1567 1577 1587 1596 1603 1609 1612 1613 1614 1617 1620 1622 1624 1627 1628 1628 1627 1626 1625 1623 1621 1619 1615 1611 1607 1603 1599 1595 1591 1587 1584 1580 1576 1572 1568 1564 1560 1555 1551 1547 1543 1538 1534 1530 1525 1521 1518 1514
1565 1572 1583 1588 1593 1600 1609 1612 1614 1615 1618 1621 1622 1623 1625 1627 1626 1626 1626 1624 1623 1620 1618 1614 1610 1606 1602 1598 1594 1590 1587 1583 1579 1575 1571 1567 1563 1558 1554 1549 1545 1540 1536 1531 1527 1522 1518 1514 1510
1568 1571 1580 1586 1590 1599 1608 1611 1615 1616 1618 1620 1621 1623 1623 1624 1625 1626 1625 1625 1622 1620 1616 1613 1609 1605 1601 1597 1593 1589 1586 1582 1578 1573 1569 1564 1560 1556 1551 1547 1542 1537 1533 1528 1523 1519 1514 1509 1505
1570 1573 1585 1592 1594 1599 1606 1609 1613 1616 1617 1619 1620 1621 1622 1623 1625 1626 1626 1624 1622 1618 1615 1611 1607 1603 1599 1595 1591 1588 1584 1579 1575 1571 1566 1562 1557 1553 1548 1543 1538 1533 1529 1524 1519 1515 1510 1506 1501
1579 1585 1594 1598 1599 1601 1606 1610 1612 1613 1614 1615 1617 1619 1621 1623 1624 1624 1624 1622 1620 1617 1614 1610 1606 1602 1597 1593 1589 1585 1581 1577 1573 1568 1564 1559 1554 1549 1544 1539 1534 1529 1524 1519 1515 1510 1506 1502 1497
1587 1595 1597 1600 1602 1604 1607 1609 1611 1612 1612 1613 1615 1617 1619 1622 1623 1623 1622 1621 1618 1615 1612 1609 1604 1600 1596 1592 1588 1584 1580 1575 1571 1566 1561 1556 1551 1546 1541 1536 1531 1525 1520 1515 1510 1506 1501 1497 1493
1590 1598 1601 1603 1604 1606 1608 1609 1610 1611 1611 1612 1615 1617 1619 1621 1621 1621 1620 1619 1617 1614 1611 1607 1603 1598 1594 1590 1587 1583 1578 1574 1569 1564 1559 1554 1549 1544 1539 1534 1528 1523 1517 1512 1507 1502 1497 1492 1488
1595 1598 1602 1605 1606 1607 1608 1609 1610 1609 1611 1612 1614 1616 1618 1619 1619 1619 1618 1617 1615 1613 1610 1606 1601 1597 1593 1589 1585 1581 1577 1572 1567 1562 1557 1551 1546 1541 1535 1530 1525 1519 1514 1509 1504 1498 1493 1488 1483
1597 1599 1603 1605 1606 1607 1608 1607 1606 1607 1609 1612 1614 1615 1616 1617 1617 1617 1616 1615 1614 1611 1608 1604 1600 1596 1592 1589 1585 1580 1576 1571 1565 1560 1554 1549 1543 1537 1532 1526 1521 1516 1511 1505 1500 1495 1489 1484 1478
1595 1593 1593 1601 1604 1606 1608 1593 1600 1604 1607 1609 1611 1613 1614 1614 1615 1615 1614 1613 1611 1609 1606 1602 1598 1595 1591 1588 1583 1579 1574 1569 1563 1557 1552 1546 1540 1535 1529 1524 1518 1513 1507 1502 1497 1491 1485 1480 1474
1588 1584 1586 1596 1602 1603 1603 1592 1600 1602 1605 1607 1608 1610 1611 1612 1612 1612 1611 1610 1609 1606 1603 1600 1597 1593 1590 1586 1582 1577 1572 1566 1561 1555 1550 1544 1538 1532 1526 1520 1515 1509 1504 1499 1494 1488 1483 1476 1470
1584 1583 1585 1586 1595 1600 1597 1591 1596 1600 1602 1603 1605 1606 1608 1608 1609 1609 1608 1607 1606 1604 1601 1598 1595 1591 1587 1584 1579 1575 1570 1564 1559 1553 1547 1541 1535 1529 1523 1517 1512 1506 1501 1496 1491 1485 1479 1474 1467
1586 1585 1584 1587 1595 1596 1590 1587 1589 1595 1598 1599 1600 1602 1603 1605 1606 1605 1605 1604 1603 1601 1599 1596 1592 1588 1585 1581 1576 1571 1566 1561 1555 1550 1544 1537 1531 1525 1520 1514 1509 1504 1498 1493 1488 1482 1476 1470 1465
1588 1585 1582 1588 1596 1594 1586 1582 1583 1588 1591 1593 1595 1597 1599 1601 1602 1601 1601 1601 1601 1599 1596 1593 1590 1586 1582 1577 1573 1568 1562 1557 1552 1546 1541 1535 1529 1523 1517 1512 1506 1501 1495 1490 1484 1479 1473 1467 1463
1587 1585 1584 1587 1591 1594 1591 1571 1581 1586 1589 1591 1592 1593 1594 1596 1597 1598 1598 1598 1598 1596 1593 1590 1587 1583 1579 1575 1570 1565 1560 1555 1550 1544 1537 1532 1526 1520 1514 1509 1503 1498 1493 1487 1481 1476 1470 1464 1459
1584 1589 1590 1590 1587 1578 1588 1570 1567 1579 1584 1586 1586 1587 1589 1591 1593 1594 1595 1595 1594 1593 1590 1587 1584 1580 1577 1572 1567 1562 1557 1552 1546 1540 1534 1529 1523 1518 1512 1506 1501 1495 1490 1484 1478 1472 1466 1460 1455
1589 1592 1591 1590 1587 1582 1584 1576 1561 1579 1575 1576 1579 1581 1584 1586 1588 1590 1591 1591 1591 1589 1587 1585 1581 1578 1574 1570 1565 1560 1555 1549 1544 1538 1532 1526 1521 1515 1510 1504 1498 1492 1486 1480 1473 1467 1461 1456 1451
1592 1591 1590 1589 1584 1576 1579 1577 1562 1566 1568 1571 1575 1577 1579 1582 1584 1585 1586 1587 1587 1586 1584 1582 1579 1576 1572 1567 1562 1557 1552 1546 1541 1535 1529 1524 1518 1513 1507 1501 1496 1489 1483 1476 1469 1462 1456 1450 1445
1588 1582 1575 1572 1570 1568 1585 1580 1564 1565 1570 1572 1573 1575 1576 1577 1579 1581 1582 1584 1584 1583 1581 1579 1576 1573 1569 1564 1560 1554 1549 1544 1538 1532 1527 1521 1515 1510 1504 1499 1492 1486 1479 1472 1465 1457 1450 1445 1440
1589 1586 1585 1586 1578 1571 1579 1574 1558 1567 1570 1570 1571 1572 1572 1574 1575 1577 1579 1580 1580 1579 1578 1576 1573 1570 1566 1562 1557 1552 1546 1541 1536 1530 1525 1519 1513 1508 1502 1496 1490 1483 1476 1469 1461 1453 1446 1440 1434
1588 1588 1592 1588 1587 1586 1567 1563 1557 1567 1567 1568 1568 1568 1568 1570 1572 1574 1575 1576 1577 1576 1574 1572 1570 1567 1563 1559 1554 1549 1544 1539 1533 1528 1523 1517 1511 1505 1499 1493 1487 1480 1473 1466 1458 1450 1443 1436 1430
1593 1591 1591 1589 1586 1580 1565 1561 1557 1552 1555 1560 1563 1564 1564 1566 1568 1570 1571 1572 1573 1572 1571 1569 1567 1564 1560 1556 1551 1546 1541 1536 1531 1525 1520 1515 1509 1503 1497 1490 1484 1477 1471 1463 1456 1448 1441 1434 1428
1593 1593 1591 1589 1588 1583 1575 1557 1550 1550 1553 1556 1557 1558 1559 1560 1563 1565 1567 1568 1569 1568 1567 1566 1563 1560 1557 1553 1548 1544 1539 1533 1528 1523 1518 1512 1506 1501 1494 1488 1482 1475 1468 1461 1454 1447 1439 1433 1427
1588 1587 1587 1585 1583 1587 1581 1562 1548 1551 1553 1554 1554 1554 1554 1556 1558 1561 1563 1564 1564 1564 1563 1562 1560 1557 1554 1550 1545 1541 1536 1531 1526 1521 1515 1510 1504 1498 1492 1486 1480 1473 1467 1460 1453 1445 1439 1432 1426